Location: Arboyeti
(42.1122°N, 44.6017°E)
Time: 16:24:50
(UTC+00:00)

Ariane Rocket - Pass Details

Date: 19 April 2021
Orbit: 760 x 770 km, 98.7° (Epoch: 06 May)

Event Time Altitude Azimuth Distance (km) Brightness Sun altitude
Exits shadow 17:49:59 12° 196° (SSW) 2,164 5.1 -20.9°
Maximum altitude 17:54:17 37° 262° (W) 1,166 4.2 -21.5°
Drops below altitude 10° 17:58:58 10° 330° (NNW) 2,300 6.5 -22.2°
Sets 18:01:27 0° 338° (NNW) 3,229 7.3 -22.5°
